STARLINK-1357, 45565

Orbit data source: Space-Track

STARLINK-1357, 45565 is a payload satellite owned by SpaceX/Seattle (US) in LEO that was launched on Wed, 22 Apr 2020 UTC via an FALCON 9 launch vehicle from the Air Force Eastern Test Range (AFETR). Payload-class satellites include a variety of spacecraft equipped with specific instruments for various scientific and technological missions. These include communications satellites like Starlink; space stations such as the ISS; scientific satellites like the Hubble; Earth observation satellites from companies like Planet Labs, Umbra, and HawkEye 360; GPS; miniature CubeSats for education and research; and military/defense satellites.

Not visible in the next 10 days
Identifier
45565, 2020-025AL
Orbit
LEO
Country
Flag of USUS
Related business
Manufacturer
SpaceX/Seattle
Mission
Partially operational Commercial Communications
Bus & Motor
STARLINK, Unknown motor
Mass
260 kg wet, ~248 kg dry
Launch date (UTC)
2020-04-22 (6 years ago)
Launch vehicle
FALCON 9
Launch site
Air Force Eastern Test Range (AFETR)
Object type
Payload
Rocket body
Debris
Shape & HBR
Box + 1 Pan, 10.1 m
Radar Cross Section
13.562 m², Large (>1 m²)

Expand to show TLE details & history
Last TLE update: 12 hours ago

TLE from 12 hours ago
0 STARLINK-1357
1 45565U 20025AL  26257.77618502  .00122842  00000-0  54774-3 0  9991
2 45565  53.0359 182.9878 0006708  94.3406 265.8383 15.83401534355767
Epoch: 2026-09-14T18:37Z
TLE epoch observation values (Epoch: 2026-09-14T18:37:42.385Z)
Latitude
-0.00001°
Longitude
-90.19045°
Altitude
322.065 km
Speed
7.716 km/s
True Right ascension
12h 11m 57s
True Declination
0° 00' 00"
Sunlit
Object was in daylight at epoch
Visualization orbit readout
Latitude
Unknown
Longitude
Unknown
Altitude
Unknown
Speed
Unknown
Apparent Right ascension
Unknown
Apparent Declination
Unknown
Sunlit
N/A
Visualization observer readout
Local Sidereal Time
23:01:26
Azimuth
Unknown
Elevation
Unknown
Doppler factor
Unknown
Orbital elements
Apogee altitude
325.606 km
Perigee altitude
316.618 km
Semi-major axis
6,699.249 km
Eccentricity
0.00067
Inclination
53.0359°
RAAN
182.9878°
Arg. of periapsis
94.3406°
True anomaly
265.76164°
Mean anomaly
265.8383°
Eccentric anomaly
265.79997°
Mean motion
3.95826 °/min
Orbital period
90.95 mins
BSTAR
0.00054774
Loading maneuver chart data...
Computing Atmospheric mass density...

Documentation

Showing up to 5 results
|